Home   Weather   Bramsche   Past weeks

Flag for Germany Past Weather in Bramsche, Lower Saxony, Germany — Yesterday and Last 2 Weeks

Now
28 °F

Clear.


Feels Like: 28 °F
Forecast: 21 / 34 °F
Wind: 2 mph from North

Location: Muenster / Osnabrueck

Current Time: Dec 4, 2016 at 7:37:06 pm

Latest Report: Dec 4, 2016 at 7:20 pm


Visibility: 10 mi

Pressure: 30.36 "Hg

Humidity: 80%

Dew Point: 23 °F

Location of BramscheLocation

Past Weather in Bramsche — Graph

°F

Bramsche Temperature Yesterday

Maximum temperature yesterday: 37 °F (at 2:20 pm)
Minimum temperature yesterday: 25 °F (at 6:20 am)
Average temperature yesterday: 29 °F

High & Low Weather Summary for the Past Weeks

 TemperatureHumidityPressure
High57 °F (Nov 20, 2:50 pm)100% (Nov 23, 4:50 am)30.60 "Hg (Nov 23, 4:50 am)
Low18 °F (Nov 29, 7:20 am)45% (Dec 4, 2:50 pm)29.27 "Hg (Nov 20, 12:50 pm)
Average38 °F86%30.12 "Hg
* Reported Nov 19 6:20 pm — Dec 4 6:20 pm, Bramsche, Weather by CustomWeather, © 2016

Note: Actual official high and low records may vary slightly from our data, if they occured in-between our weather recording intervals... More about our weather records

Advertising

Bramsche Weather History for the Previous 24 Hours

Scroll right to see more
 ConditionsComfort  
Time TempWeatherWind HumidityBarometerVisibility
6:20 pm
Sun, Dec 4
30 °FPassing clouds.5 mph80%30.36 "HgN/A
5:50 pm28 °FClear.2 mph80%30.36 "Hg10 mi
5:20 pm30 °FClear.3 mph75%30.36 "Hg10 mi
4:50 pm32 °FPassing clouds.3 mph69%30.36 "HgN/A
4:20 pm36 °FClear.2 mph60%30.36 "Hg10 mi
3:50 pm39 °FSunny.2 mph48%30.36 "Hg10 mi
3:20 pm41 °FSunny.2 mph53%30.36 "Hg10 mi
2:50 pm41 °FSunny.2 mph45%30.36 "Hg10 mi
2:20 pm41 °FPassing clouds.3 mph49%30.36 "HgN/A
1:50 pm41 °FPassing clouds.3 mph57%30.36 "HgN/A
1:20 pm39 °FSunny.2 mph70%30.36 "Hg10 mi
12:50 pm37 °FSunny.2 mph75%30.36 "Hg10 mi
12:20 pm37 °FSunny.2 mph81%30.39 "Hg10 mi
11:50 am34 °FSunny.2 mph87%30.39 "Hg10 mi
11:20 am34 °FSunny.No wind93%30.39 "Hg10 mi
10:50 am30 °FSunny.No wind93%30.39 "Hg10 mi
10:20 am27 °FSunny.No wind100%30.39 "Hg10 mi
9:50 am27 °FSunny.No wind93%30.39 "Hg10 mi
9:20 am23 °FSunny.No wind100%30.39 "Hg10 mi
8:50 am21 °FSunny.1 mph93%30.36 "Hg10 mi
8:20 am21 °FFog.No wind93%30.36 "Hg4 mi
7:50 am21 °FIce fog.1 mph93%30.36 "Hg3 mi
7:20 am21 °FIce fog.1 mph93%30.36 "Hg3 mi
6:50 am21 °FIce fog.2 mph93%30.36 "Hg2 mi
6:20 am21 °FIce fog.No wind100%30.36 "Hg2 mi
5:50 am23 °FIce fog.3 mph100%30.36 "Hg2 mi
5:20 am21 °FIce fog.2 mph93%30.36 "Hg1 mi
4:50 am21 °FIce fog.2 mph93%30.36 "Hg1 mi
4:20 am21 °FIce fog.2 mph100%30.36 "Hg1 mi
3:50 am23 °FIce fog.1 mph93%30.36 "Hg1 mi
3:20 am23 °FIce fog.No wind100%30.36 "Hg1 mi
2:50 am25 °FIce fog.1 mph100%30.36 "Hg2 mi
2:20 am25 °FIce fog.1 mph93%30.36 "Hg1 mi
1:50 am23 °FIce fog.2 mph93%30.36 "Hg1 mi
1:20 am23 °FIce fog.2 mph100%30.36 "Hg1 mi
12:50 am23 °FIce fog.2 mph100%30.36 "Hg1 mi
12:20 am23 °FIce fog.1 mph100%30.36 "Hg1 mi
11:50 pm
Sat, Dec 3
25 °FIce fog.No wind100%30.36 "Hg1 mi
11:20 pm25 °FIce fog.No wind100%30.36 "Hg1 mi
10:50 pm25 °FIce fog.No wind100%30.36 "Hg1 mi
10:20 pm27 °FIce fog.No wind93%30.36 "Hg1 mi
9:50 pm25 °FIce fog.2 mph93%30.36 "Hg1 mi
9:20 pm27 °FIce fog.No wind93%30.33 "Hg1 mi
8:50 pm27 °FIce fog.No wind93%30.33 "Hg1 mi
8:20 pm27 °FIce fog.1 mph100%30.33 "Hg1 mi
7:50 pm27 °FIce fog.No wind100%30.33 "Hg1 mi
7:20 pm28 °FIce fog.No wind93%30.33 "Hg1 mi
Weather by CustomWeather, © 2016

See weather overviewHow to use our weather pages